Tracking 30970 objects as of 3-Jul-2025
HD Live streaming from Space Station
objects crossing your sky now

EKRAN 2 DEB

Track EKRAN 2 DEB now!


NORAD ID: 29014
Int'l Code: 1977-092K
Perigee: 35,748.1 km
Apogee: 35,906.2 km
Inclination: 5.0 °
Period: 1,437.8 minutes
Semi major axis: 42198 km
RCS: 1 m2 (large)
Launch date: September 20, 1977
Source: Commonwealth of Independent States (former USSR) (CIS)
Launch site: TYURATAM MISSILE AND SPACE COMPLEX (TTMTR)

Note: This is SATELLITE DEBRIS
Your satellite tracking list
Your tracking list is empty




NASA's NSSDC Master Catalog

Two Line Element Set (TLE):
1 29014U 77092K   25183.63575721 -.00000100  00000-0  00000-0 0  9998
2 29014   5.0322 278.9592 0018734 335.5016 244.1469  1.00152859 43770
Source of the keplerian elements: AFSPC